"Pseudo-MPEC" for C03FYU1

Created 2019 Feb 13 5:18:16 UT using Find_Orb

Click here for an explanation of pseudo-MPECs

 
 Astrometry: 
     C03FYU1  C2019 02 11.16143 07 37 26.45 +69 59 24.2    ~2B4m 19.4 GVNEOCP703
     C03FYU1  C2019 02 11.16682 07 37 29.33 +69 58 48.4    ~2B4m 18.7 GVNEOCP703
     C03FYU1  C2019 02 11.17221 07 37 32.34 +69 58 13.7    ~2B4m 19.1 GVNEOCP703
     C03FYU1  C2019 02 11.17760 07 37 35.26 +69 57 37.5    ~2B4m 19.2 GVNEOCP703
     C03FYU1  C2019 02 11.29952 07 38 40.85 +69 43 32.1    ~2B7m 19.1 GVNEOCPI52
     C03FYU1  C2019 02 11.29970 07 38 40.92 +69 43 30.8    ~2B7m 19.2 GVNEOCPI52
     C03FYU1  C2019 02 11.30171 07 38 42.01 +69 43 16.2    ~2B7m 18.8 GVNEOCPI52
     C03FYU1  C2019 02 11.30189 07 38 42.15 +69 43 14.7    ~2B7m 18.9 GVNEOCPI52
     C03FYU1  C2019 02 11.74084 07 43 51.05 +68 50 37.8    ~2BJ3 18.9 VVNEOCP033
     C03FYU1  C2019 02 11.74154 07 43 51.45 +68 50 32.9    ~2BJ3 18.8 VVNEOCP033
     C03FYU1  C2019 02 11.74226 07 43 51.89 +68 50 28.1    ~2BJ3 18.6 VVNEOCP033
     C03FYU1  C2019 02 11.74297 07 43 52.26 +68 50 23.4    ~2BJ3 18.7 VVNEOCP033
     C03FYU1  C2019 02 11.74367 07 43 52.67 +68 50 18.7    ~2BJ3 18.8 VVNEOCP033
     C03FYU1 KC2019 02 11(!DMAstrometry')s'ta%w`35)Q`Q4%5qmxhFvR%x.I%5SR=M:v$C95
     C03FYU1 KC2019 02 114)Y#BMR^YW6A[p14HN;$tpg3S(gBe!Ee'!..TFBe7=F-N4/V*LZ$C95
     C03FYU1 KC2019 02 11LoZKZ;MB$[iFFZcGgl[PHe)iyQ[O[:U*Ndi-amh*mid16+#K[%7^C95
     C03FYU1 KC2019 02 11NcuX7!w[/^(QhP@RaV]\rCs0,-GEWgt@,2r)G[g)2/Y-at=x8yK6K38
     C03FYU1  C2019 02 11.79016 07 44 18.68 +68 45 04.1    ~2BM3 18.6 VVNEOCP033
     C03FYU1  C2019 02 11.79095 07 44 19.11 +68 44 58.7    ~2BM3 18.4 VVNEOCP033
     C03FYU1  C2019 02 11.79175 07 44 19.55 +68 44 53.3    ~2BM3 18.4 VVNEOCP033
     C03FYU1 KC2019 02 117Jo1AC9_Dt'N`6-mR\1*N0Ud]7`qt(bxwM?yK2_o`@CGV+n.gYmoK38
     C03FYU1 KC2019 02 11R3nfA+SlrlbX2_YCjN+1-x[QGo2:id(lXnFTSSFKFb*2HcUlkaXyK38
     C03FYU1 KC2019 02 11Uw']C:Qin*wn0CWnU%1eq#LOVeB`PW[(9rKSIo!-loqiLex+w=#iC77
     C03FYU1 KC2019 02 11Y($;AvANy6O,\x$%KCWV@u3tt*M#/p67tRXJs,Ic5Vy34X8W5IR0K38
     C03FYU1 KC2019 02 11gtMX1!0Credacted;L])O+S+s1D+Fm71]=`H(p5VwmAyWd%nmTneC77
     C03FYU1 KC2019 02 11LYcjy[*G=7tx^;Qp0dM3mX4dG3LZO6$(q.P4bAb:%$EO^/:eN'X`K63
     C03FYU1 KC2019 02 11v^#gNbq%8%?q]?GAN;,VB?=]aWqDv/GwvO_Gld9K^1bW2]_Miob3C77
     C03FYU1 KC2019 02 11)^65f?\2^v7vay-s\lF%bohu!lf.A!k%7K:WjQi(MZX4Yea;X-A@K63
     C03FYU1 KC2019 02 11ev7V!([p`LG).tdgbCRI9d04+fw!wR7=(NM]V/Sp[CN0jacmT'#hK63
     C03FYU1 KC2019 02 11$^yRe]ct6Y/kYSswcd9Wm.56tX!SM@kLMWc6QToaE):ZW\M8:uO1K38
     C03FYU1 KC2019 02 111`@^q)NI]wd\XU;57h'+='4Nv;lE.#+N;W2iZIgD`G;bk,+M8HTL203
     C03FYU1 KC2019 02 11-)vd;eDdRBJx?CLGpJKDG[!m^HG?/P;skZq0g94A7T][Z_QR/v08203
     C03FYU1 IC2019 02 11/Ud]ETd2nyS_-jtg)Ls8(o@GclickYqG^@09+mm*XJWI/m*+w0XiL01
     C03FYU1 KC2019 02 11^Oc$:Vc-Jmc\c39fwWZ[1ktT]!J*bYCgMP[$xx`a2SNcdbDZMi.'L01
     C03FYU1 pC2019 02 11m'+ZT+eicch#$TVRqtn;TA^bIdL+o?mcxwU^xG%f%^t[jk0_`dZDL01
     C03FYU1 pC2019 02 11L5uM4M\riZsI!x-O4QAD6'.q5.iBwUo2+vXXr!lF$GDewX=rVSSeL01
     C03FYU1 KC2019 02 11dXFPcBQuT#v#!HHfyZ)q77$Vo8d\:;FLaQi)(]_o8cJ:ej9ytdje203
     C03FYU1 KC2019 02 11.93557507 45 38.91 +68 27 56.3    ~2BMm 18.8 GVNEOCPJ95
     C03FYU1 KC2019 02 11.93696907 45 39.53 +68 27 46.1    ~2BMm 19.1 GVNEOCPJ95
     C03FYU1 KC2019 02 11.93837707 45 40.26 +68 27 36.1    ~2BMm 19.0 GVNEOCPJ95
     C03FYU1 KC2019 02 11u=!hHEK*ccj2!-\;rMTK!rf:A'qpbiK*kpUv4@FsM)4y0BJ1:fw/Z80
     C03FYU1 KC2019 02 11F%07v@gd8-d2ZGF3WC8h7$?F;KPZN*`N0K?`k-J):4;O6bm_\PY!Z80
     C03FYU1 KC2019 02 112o\Bt(ec,H#t,04I$M#:#6;1B(?P:h36bir'R$*/xHpc\?AcB[fYZ80
     C03FYU1 KC2019 02 11#q`j-3%*?]4(56xxL=?5:TUM+vKWyB4J($W+76i0sW9cm7herea?Z80
     C03FYU1 KC2019 02 11Pt:URmwfEOe6@.Gme`V2wr+,S9/BV9=pnodF5\LZ1kqQyrEX!PUMZ80
     C03FYU1 KC2019 02 12.09929507 47 34.41 +68 08 03.0    ~2C33 18.3 GVNEOCPV03
     C03FYU1 KC2019 02 12.10441807 47 36.99 +68 07 27.8    ~2C33 19.1 GVNEOCPV03
     C03FYU1  C2019 02 12.12588 07 47 48.66 +68 05 10.8    ~2C3X 18.4 GVNEOCPI52
     C03FYU1  C2019 02 12.12781 07 47 49.59 +68 04 58.2    ~2C3X 18.3 GVNEOCPI52
     C03FYU1  C2019 02 12.13050 07 47 50.97 +68 04 39.4    ~2C3X 18.7 GVNEOCPI52
     C03FYU1  C2019 02 12.13242 07 47 51.88 +68 04 26.0    ~2C3X 18.7 GVNEOCPI52
     C03FYU1 KC2019 02 12*s@!AiegXGm92^dd7\cUn_#l@?LnyOyroTm8?[q@Nd,g(J$342,MV01
     C03FYU1 KC2019 02 12bTo4#I'pBbA7+IXgs6+a$qmR`EI#eW2y5['_XCt41ClR=)7X-bK_V01
     C03FYU1 KC2019 02 127_BkNWL35o90*$SPVJ3G(A/-Z1Wt7_*OxLtL)F9?;,Oy0\P@-=g5595
     C03FYU1 KC2019 02 12GymQ(kWq`0Y=bqE!RAAWq*3MQ2@\nf9p]SrngidO:Et;E4gk8@uK595
     C03FYU1 KC2019 02 12T/Uk'_)q$Y1I-'H4;i6`\05-X;EW*.@`y\g9f8qy$t,+B@f0`Huu587
     C03FYU1 KC2019 02 129;Ayn#f-CYXB]ROhuIh;4(c/#rG'#H@rCsfF9NDr,fU_;w4??OSG587
     C03FYU1 KC2019 02 12y[MsSpl?q`G;XT'hmwe[+0oRV11ti\tJfordm#Z:v+DFXR(FE%fZ595
     C03FYU1 KC2019 02 12!4NjKHn5pqIdGUdk!vw)wvbcV]4M7(L)LQ+@f!kie9D)^6]#2F@i587
     C03FYU1 KC2019 02 12mq'tH2:hh`X-SV7kV=':t:::]Qn_X01_*YLx:^ZGk6^]GUd;OX/CK38
     C03FYU1 KC2019 02 12T3bnqu@oQ4.1[yt\I)!3YMVO3H%6y3#;'tj!DB5R-K+/EB2NCPaVK38
     C03FYU1 KC2019 02 12'?x_4%YX[Wp/bA;K@]^oZh06F(B7H,rA^W/dkBEHvoX^kM01dHD6K38
     C03FYU1 HC2019 02 12PqlKUI5?nW=ShO8YHj@pK`pRCCcpsZby5f4/Zk'QDo6((8sbx@In204
     C03FYU1 KC2019 02 12%+ER:Ywv1uk72NtJGv3y=6G6\8LxWBWOM'B6XGTc8f72j8cW7Zm^204
     C03FYU1 KC2019 02 12r+8EbsAxR_y,#7L:$SgNDGA]KK4GSvs84.:R`SQFVCrqGh$hHi8_104
     C03FYU1 KC2019 02 124T^,/lFa,TmR06$[7m9YcH!!uW4EEi)QRvRm(,:5p*9RA`EJa%cD104
     C03FYU1 KC2019 02 12fL-explanationX!ydo4ZMfu42v^MR=6q;(NeuO,!7Yl!wa5Wacx104
     C03FYU1  C2019 02 13.11518 07 57 06.47 +66 01 36.1    ~2D3I 19.2 GVNEOCPI52
     C03FYU1  C2019 02 13.11698 07 57 07.08 +66 01 22.6    ~2D3I       VNEOCPI52
     C03FYU1  C2019 02 13.11823 07 57 07.71 +66 01 13.6    ~2D3I       VNEOCPI52

Station data:
(033) Karl Schwarzschild Observatory, Tautenburg  (N50.980140 E11.711240)
   Germany. 1.3-m Schmidt.
(104) San Marcello Pistoiese  (N44.063037 E10.804200)  Italy. 0.40-m f/5
   reflector.
(203) GiaGa Observatory  (N45.541408 E8.995500)  Italy. 0.13-m f/6.4
   refractor.
(204) Schiaparelli Observatory  (N45.867933 E8.770800)  Italy.  Observer L.
   Buzzi. 0.60-m f/4.64 Newtonian + CCD.
(587) Sormano  (N45.882949 E9.229180)  Italy.  Observers F. Manca, A. Testa.
   Measurer F. Manca. 0.5-m + CCD.
(595) Farra d'Isonzo  (N45.915734 E13.525780)  Italy.  Observers L.
   Bittesini, F. Fabris, E. Pettarin, F. Piani. Measurer E. Pettarin. 0.30-m
   f/4.5 reflector + CCD.
(703) Catalina Sky Survey  (N32.417006 W110.732640)  US/Arizona.  Observers
   B. M. Africano, E. J. Christensen, G. A. Farneth, D. C. Fuls, A. R. Gibbs,
   A. D. Grauer, H. Groeller, J. A. Johnson, R. A. Kowalski, S. M. Larson, G.
   J. Leonard, R. L. Seaman, F. C. Shelly. 0.68 m Schmidt + 10K CCD.
(C77) Bernezzo Observatory  (N44.385250 E7.453500)  Italy.
(C95) SATINO Remote Observatory, Haute Provence  (N43.932042 E5.712390)
   France.
(I52) Steward Observatory, Mt. Lemmon Station  (N32.442547 W110.788920)
   US/Arizona.  Observers B. M. Africano, E. J. Christensen, G. A. Farneth,
   D. C. Fuls, A. R. Gibbs, A. D. Grauer, H. Groeller, J. A. Johnson, R. A.
   Kowalski, S. M. Larson, G. J. Leonard, R. L. Seaman, F. C. Shelly. 1.0-m
   reflector + CCD.
(J95) Great Shefford  (N51.474969 W1.447003)  UK.  Observer P. Birtwhistle.
   0.40-m f/6.0 Schmidt-Cassegrain + CCD.
(K38) M57 Observatory, Saltrio  (N45.873785 E8.918240)  Italy.
(K63) G. Pascoli Observatory, Castelvecchio Pascoli  (N44.082410 E10.462000)
   Italy.
(L01) Višnjan Observatory, Tičan  (N45.290900 E13.749300)  Croatia.
   Observers K. Korlević, E. Pettarin. Measurer E. Pettarin. 1.0-m f/2.9
   reflector + CCD.
(V01) Mountainville Observatory, Alpine  (N40.448904 W111.760890)  US/Utah.
(V03) Big Water  (N37.083379 W111.668600)  US/Utah.  Observer D. Rankin.
   0.30-m reflector + CCD.
(Z80) Northolt Branch Observatory  (N51.554661 W0.371920)  UK.  Observer G.
   Wells. Measurer D. Bamberger. 0.25-m f/8 Ritchey-Chrétien + CCD.

Orbital elements:  C03FYU1
   Perihelion 2019 Jan 19.487723 +/- 0.0299 TT = 11:42:19 (JD 2458502.987723)
Epoch 2019 Feb 13.0 TT = JDT 2458527.5   Earth MOID: 0.0526   Ma: 0.0076
M  17.89927024 +/- 0.027            (J2000 ecliptic)          AutoNEOCP
n   0.73021653 +/- 0.00039          Peri.  133.10227 +/- 0.041
a   1.22133538 +/- 0.000434         Node   343.36798 +/- 0.010
e   0.1745655 +/- 0.000257          Incl.    6.63810 +/- 0.009
P   1.35/493.00d           H 23.2   G  0.15   U  7.5  
q 1.00813232 +/- 4.79e-5    Q 1.43453845 +/- 0.000823
From 70 observations 2019 Feb. 11-13 (47.0 hr); mean residual 0".35
Residuals in arcseconds: 
190211 703  .44+  .18-    190211 C77  .98+  .15-    190212 I52  .02-  .52+    
190211 703  .09-  .47-    190211 K63  .49-  .17-    190212 I52  .23+  .15+    
190211 703  .12+  .47+    190211 C77  .33+  .20+    190212 I52  .01+  .08-    
190211 703  .08-  .03+    190211 K63  .38-  .32-    190212 V01  .37-  .05-    
190211 I52  .01-  .02-    190211 K63  .20-  .54+    190212 V01  .06-  1.2-    
190211 I52  .15-  .02-    190211 K38  .45+  .24-    190212 595  .27-  .17+    
190211 I52  .14-  .10-    190211 203  .43-  .14-    190212 595  .13-  .41-    
190211 I52  .08+  .30-    190211 203  .21-  .15+    190212 587  .35+  .68-    
190211 033  .02-  .08+    190211 L01  .21+  .24+    190212 587  .36+  .55-    
190211 033  .03-  .13-    190211 L01  .18+  .38+    190212 595  .03+  .25+    
190211 033  .12+  .10-    190211 L01  .13-  .36+    190212 587  .02-  .30-    
190211 033  .08-  .04-    190211 L01  .12+  .00     190212 K38  .08-  .16-    
190211 033  .03-  .04-    190211 203  .29-  .01-    190212 K38  .25+  .17+    
190211 C95  .30+  .09+    190211 J95  .46+  .04+    190212 K38  .17-  .15+    
190211 C95  .56-  .08-    190211 J95  .08-  .10-    190212 204  .01-  .07+    
190211 C95  .50-  1.1+    190211 J95  .06-  .08+    190212 204  .07-  .10-    
190211 K38  .13-  .14-    190211 Z80  .30-  .80-    190212 104  .49-  .09+    
